GW3819 Weather Reports


Display with metric or nautical units.
time (UTC)temp
F
wind
direction
speed
MPH
gust
MPH
rain 1hr
in
rain 24hr
in
rain mn
in
humidity
%
barometer
mb
20260507123042 50 332 4.0 10.0 0.00 0.01 0.00 50 1013.1
20260507121542 50 256 4.0 12.0 0.00 0.01 0.00 52 1013.0
20260507120037 48 273 2.0 8.0 0.00 0.01 0.00 56 1013.0
20260507114536 49 345 4.0 10.0 0.00 0.01 0.00 52 1012.9
20260507113035 49 300 1.0 9.0 0.00 0.01 0.00 50 1012.9
20260507111531 48 59 3.0 8.0 0.00 0.01 0.00 58 1012.8
20260507110028 46 190 3.0 8.0 0.00 0.01 0.00 60 1013.0
20260507104528 45 276 5.0 11.0 0.00 0.01 0.00 63 1012.9
20260507103027 46 227 3.0 12.0 0.00 0.01 0.00 62 1013.0
20260507101525 46 351 3.0 5.0 0.00 0.01 0.00 57 1013.0
20260507100029 45 286 4.0 9.0 0.00 0.01 0.00 58 1013.0
20260507094521 44 235 1.0 8.0 0.00 0.01 0.00 59 1013.0
20260507093018 44 249 5.0 10.0 0.00 0.01 0.00 65 1013.0
20260507091519 42 213 5.0 9.0 0.00 0.01 0.00 68 1013.0
20260507090014 41 313 5.0 10.0 0.00 0.01 0.00 66 1013.0
20260507084515 41 202 10.0 16.0 0.00 0.01 0.00 72 1012.8
20260507083011 42 244 7.0 17.0 0.00 0.01 0.00 72 1012.7
20260507081507 41 240 4.0 11.0 0.00 0.01 0.00 70 1012.5
20260507080003 41 313 3.0 10.0 0.00 0.01 0.00 71 1012.4
20260507074600 40 204 9.0 14.0 0.00 0.01 0.00 72 1012.4
20260507073056 39 211 9.0 13.0 0.00 0.01 0.00 78 1012.3
20260507071553 39 206 9.0 13.0 0.00 0.01 0.00 77 1012.3
20260507070101 38 197 6.0 9.0 0.00 0.01 0.00 82 1012.0
20260507064621 38 186 7.0 10.0 0.00 0.01 0.00 81 1011.9
20260507063052 38 150 5.0 12.0 0.00 0.01 0.00 82 1012.0
20260507061547 37 197 5.0 10.0 0.00 0.01 0.00 82 1012.0
20260507060104 37 139 5.0 10.0 0.00 0.01 0.00 83 1011.8
20260507054547 36 202 9.0 13.0 0.00 0.01 0.00 84 1011.7
20260507053041 36 180 9.0 12.0 0.00 0.01 0.00 84 1011.6
20260507051545 37 209 5.0 10.0 0.00 0.01 0.00 84 1011.3
20260507050041 37 202 6.0 9.0 0.00 0.01 0.00 84 1011.1
20260507044529 36 207 5.0 7.0 0.00 0.01 0.00 84 1011.0
20260507043026 36 191 0.0 2.0 0.00 0.01 0.00 84 1010.7
20260507041527 36 192 0.0 3.0 0.00 0.01 0.00 84 1010.6
20260507040021 37 201 2.0 8.0 0.00 0.01 0.00 83 1010.5
20260507034519 36 153 4.0 8.0 0.00 0.01 0.00 83 1010.5
20260507033020 36 165 3.0 5.0 0.00 0.01 0.00 84 1010.3
20260507031515 36 223 0.0 3.0 0.00 0.01 0.00 84 1010.3
20260507030024 36 93 0.0 0.0 0.00 0.01 0.00 84 1010.3
20260507024517 36 93 0.0 0.0 0.00 0.01 0.00 83 1010.1
20260507023011 37 157 0.0 0.0 0.00 0.01 0.00 83 1010.2
20260507021510 37 157 0.0 3.0 0.00 0.01 0.00 82 1010.1
20260507020009 37 128 2.0 6.0 0.00 0.01 0.00 82 1010.1
20260507014512 37 202 1.0 7.0 0.00 0.01 0.00 82 1009.9
20260507013011 37 186 2.0 6.0 0.00 0.01 0.00 82 1009.7
20260507011506 37 168 4.0 7.0 0.00 0.01 0.00 82 1009.7
20260507010007 37 170 2.0 4.0 0.00 0.01 0.00 82 1009.6
20260507004503 37 165 3.0 4.0 0.00 0.01 0.00 82 1009.7
20260507003001 37 223 0.0 2.0 0.00 0.01 0.00 82 1009.4
20260507001500 37 158 2.0 4.0 0.00 0.01 0.00 81 1009.3
20260507000059 37 160 3.0 8.0 0.00 0.01 0.00 82 1009.5
20260506234600 37 167 1.0 3.0 0.00 0.01 0.00 82 1009.7
20260506233059 38 167 1.0 6.0 0.00 0.01 0.00 81 1009.7
20260506231607 38 171 1.0 5.0 0.00 0.01 0.00 78 1009.6
20260506230106 39 148 0.0 2.0 0.00 0.01 0.00 78 1009.6
20260506224552 39 131 4.0 9.0 0.00 0.01 0.00 76 1009.5
20260506223050 38 130 5.0 15.0 0.00 0.01 0.00 78 1009.4
20260506221608 38 170 3.0 10.0 0.00 0.01 0.00 77 1009.3
20260506220055 38 121 3.0 9.0 0.00 0.01 0.00 77 1009.2
20260506214547 39 121 5.0 12.0 0.00 0.01 0.01 77 1009.0
20260506213058 39 125 6.0 12.0 0.00 0.01 0.01 77 1009.1
20260506211541 38 164 9.0 16.0 0.01 0.01 0.01 79 1009.0
20260506210046 38 94 9.0 16.0 0.01 0.01 0.01 81 1009.0
20260506204538 39 238 2.0 10.0 0.01 0.01 0.01 79 1009.1
20260506203035 39 133 4.0 9.0 0.01 0.01 0.01 77 1009.1
20260506201539 40 219 7.0 15.0 0.00 0.00 0.00 72 1009.3
20260506200030 41 204 10.0 19.0 0.00 0.00 0.00 70 1008.9
20260506194528 40 209 3.0 7.0 0.00 0.00 0.00 72 1008.7
20260506193026 42 192 3.0 16.0 0.00 0.00 0.00 68 1008.3
20260506191524 41 244 7.0 17.0 0.00 0.00 0.00 68 1008.1
20260506190028 42 175 10.0 16.0 0.00 0.00 0.00 67 1008.0
20260506184524 41 186 6.0 10.0 0.00 0.00 0.00 67 1007.6
20260506183020 42 223 9.0 16.0 0.00 0.00 0.00 61 1007.5
20260506181520 43 219 14.0 28.0 0.00 0.00 0.00 67 1007.0
20260506180024 44 207 10.0 22.0 0.00 0.00 0.00 68 1006.7
20260506174524 44 187 10.0 18.0 0.00 0.00 0.00 66 1006.3
20260506173018 45 196 10.0 17.0 0.00 0.00 0.00 63 1005.9
20260506171530 46 194 11.0 18.0 0.00 0.00 0.00 63 1005.6
20260506170016 47 171 9.0 16.0 0.00 0.00 0.00 55 1005.4
20260506164520 48 179 6.0 14.0 0.00 0.00 0.00 53 1005.2
20260506163017 48 18 7.0 14.0 0.00 0.00 0.00 52 1004.9
20260506161516 49 202 2.0 10.0 0.00 0.00 0.00 52 1004.7
20260506160016 50 325 4.0 12.0 0.00 0.00 0.00 53 1004.5
20260506154514 50 267 9.0 20.0 0.00 0.00 0.00 49 1004.8
20260506153013 51 235 9.0 27.0 0.00 0.00 0.00 48 1004.8
20260506151516 52 282 5.0 22.0 0.00 0.00 0.00 48 1004.8
20260506150012 51 303 6.0 15.0 0.00 0.00 0.00 48 1004.8
20260506144509 50 208 5.0 15.0 0.00 0.00 0.00 51 1004.9
20260506143009 50 41 6.0 15.0 0.00 0.00 0.00 55 1005.1
20260506141507 52 211 5.0 17.0 0.00 0.00 0.00 55 1005.2
20260506140013 49 340 5.0 12.0 0.00 0.00 0.00 59 1005.1
20260506134505 47 169 10.0 16.0 0.00 0.00 0.00 61 1005.5
20260506133004 47 222 7.0 18.0 0.00 0.00 0.00 65 1005.2
20260506131506 47 18 3.0 15.0 0.00 0.00 0.00 65 1005.2
20260506130003 47 166 5.0 19.0 0.00 0.00 0.00 64 1005.2
20260506124505 47 192 10.0 21.0 0.00 0.00 0.00 62 1005.1